Powrót do katalogu

STARLINK-34980

AktywnyŁącznośćSSO
NORAD 65258·PAYLOAD·🇺🇸 United States

Wystrzelony Aug 18, 2025 z Vandenberg Space Force Base

Loading…

Następne Przeloty (najbliższe 24 godziny)

TLE

ŚwieżeSource: CelesTrak SupGP

Epoka: Sep 15, 2026, 02:21 UTC

1 65258C 25179Z   26258.09840278  .00013077  00000+0  40585-3 0  2581
2 65258  97.2834 297.4123 0001347  87.1815 109.8632 15.33440169    10

Śledź STARLINK-34980 w czasie rzeczywistym z AllMySat

Download on the App Store